DW9210 Weather Reports


time (UTC)temp
C
wind
direction
speed
KPH
gust
KPH
rain 1hr
cm
rain 24hr
cm
rain mn
cm
humidity
%
barometer
mb
20260507193524 17 291 8.0 14.5 0.00 0.00 0.00 43 1013.3
20260507193003 17 298 6.4 19.3 0.00 0.00 0.00 50 1013.2
20260507192503 17 318 6.4 19.3 0.00 0.00 0.00 48 1013.2
20260507192003 16 326 4.8 14.5 0.00 0.00 0.00 45 1013.3
20260507191503 16 284 4.8 12.9 0.00 0.00 0.00 42 1013.2
20260507191003 16 284 6.4 14.5 0.00 0.00 0.00 43 1013.4
20260507190503 17 281 8.0 14.5 0.00 0.00 0.00 47 1013.5
20260507190004 17 281 9.7 19.3 0.00 0.00 0.00 43 1013.5
20260507185503 16 302 8.0 19.3 0.00 0.00 0.00 49 1013.6
20260507185003 16 316 6.4 14.5 0.00 0.00 0.00 49 1013.6
20260507184503 16 301 4.8 11.3 0.00 0.00 0.00 46 1013.6
20260507184003 16 299 6.4 20.9 0.00 0.00 0.00 47 1013.6
20260507183503 16 289 8.0 20.9 0.00 0.00 0.00 47 1013.5
20260507183024 16 298 8.0 16.1 0.00 0.00 0.00 52 1013.6
20260507182524 16 294 8.0 20.9 0.00 0.00 0.00 49 1013.6
20260507182003 16 286 8.0 20.9 0.00 0.00 0.00 50 1013.7
20260507181503 16 297 6.4 12.9 0.00 0.00 0.00 56 1013.7
20260507181003 16 294 6.4 11.3 0.00 0.00 0.00 50 1013.7
20260507180503 16 268 4.8 11.3 0.00 0.00 0.00 55 1013.7
20260507180003 15 256 6.4 14.5 0.00 0.00 0.00 42 1013.7
20260507175503 15 290 8.0 14.5 0.00 0.00 0.00 46 1013.8
20260507175003 16 310 8.0 16.1 0.00 0.00 0.00 46 1013.9
20260507174503 16 283 8.0 17.7 0.00 0.00 0.00 47 1013.7
20260507174003 15 264 6.4 17.7 0.00 0.00 0.00 54 1013.7
20260507173524 15 262 6.4 17.7 0.00 0.00 0.00 48 1014.0
20260507173004 15 256 8.0 19.3 0.00 0.00 0.00 48 1014.2
20260507172503 16 254 8.0 19.3 0.00 0.00 0.00 51 1014.2
20260507172003 15 269 8.0 17.7 0.00 0.00 0.00 45 1014.3
20260507171503 16 280 8.0 14.5 0.00 0.00 0.00 56 1014.4
20260507171003 15 277 6.4 14.5 0.00 0.00 0.00 56 1014.5
20260507170524 15 272 6.4 16.1 0.00 0.00 0.00 53 1014.5
20260507170024 15 285 8.0 17.7 0.00 0.00 0.00 56 1014.7
20260507165503 15 306 8.0 17.7 0.00 0.00 0.00 55 1014.8
20260507165003 15 333 6.4 14.5 0.00 0.00 0.00 52 1014.7
20260507164503 15 304 8.0 17.7 0.00 0.00 0.00 53 1014.8
20260507164003 15 286 6.4 17.7 0.00 0.00 0.00 53 1014.7
20260507163524 15 288 6.4 16.1 0.00 0.00 0.00 60 1014.6
20260507163003 15 279 6.4 17.7 0.00 0.00 0.00 51 1014.7
20260507162503 15 272 6.4 17.7 0.00 0.00 0.00 54 1014.7
20260507162024 15 277 6.4 16.1 0.00 0.00 0.00 54 1014.8
20260507161503 15 296 8.0 16.1 0.00 0.00 0.00 56 1014.9
20260507161024 15 290 9.7 16.1 0.00 0.00 0.00 50 1014.8
20260507160503 15 289 8.0 16.1 0.00 0.00 0.00 51 1014.9
20260507160003 15 296 6.4 12.9 0.00 0.00 0.00 56 1014.8
20260507155524 15 289 6.4 12.9 0.00 0.00 0.00 59 1014.9
20260507155003 15 283 8.0 12.9 0.00 0.00 0.00 58 1014.9
20260507154503 14 290 6.4 12.9 0.00 0.00 0.00 59 1015.0
20260507154003 15 299 8.0 16.1 0.00 0.00 0.00 53 1014.9
20260507153504 15 292 8.0 16.1 0.00 0.00 0.00 58 1014.9
20260507153003 14 284 6.4 14.5 0.00 0.00 0.00 51 1014.8
20260507152503 14 284 6.4 11.3 0.00 0.00 0.00 54 1014.8
20260507152003 14 286 4.8 11.3 0.00 0.00 0.00 60 1014.7
20260507151524 13 301 4.8 12.9 0.00 0.00 0.00 54 1014.6
20260507151003 13 339 6.4 14.5 0.00 0.00 0.00 50 1014.7
20260507150503 13 354 6.4 14.5 0.00 0.00 0.00 52 1014.7
20260507150003 13 328 6.4 11.3 0.00 0.00 0.00 52 1014.7
20260507145503 13 314 6.4 14.5 0.00 0.00 0.00 54 1014.7
20260507145003 13 351 4.8 14.5 0.00 0.00 0.00 54 1014.7
20260507144503 13 330 6.4 12.9 0.00 0.00 0.00 55 1014.7
20260507144024 13 298 6.4 12.9 0.00 0.00 0.00 54 1014.7
20260507143503 13 358 4.8 12.9 0.00 0.00 0.00 59 1014.6
20260507143003 13 358 6.4 12.9 0.00 0.00 0.00 59 1014.6
20260507142503 13 335 4.8 11.3 0.00 0.00 0.00 61 1014.7
20260507142003 12 330 6.4 12.9 0.00 0.00 0.00 58 1014.8
20260507141503 12 346 6.4 12.9 0.00 0.00 0.00 55 1014.7
20260507141003 12 25 6.4 11.3 0.00 0.00 0.00 59 1014.7
20260507140503 12 353 6.4 12.9 0.00 0.00 0.00 56 1014.8
20260507140003 12 338 6.4 12.9 0.00 0.00 0.00 59 1014.8
20260507135503 12 346 6.4 12.9 0.00 0.00 0.00 63 1014.9
20260507135003 12 3 6.4 14.5 0.00 0.00 0.00 60 1014.9
20260507134503 12 28 8.0 14.5 0.00 0.00 0.00 62 1014.9
20260507134003 12 20 6.4 14.5 0.00 0.00 0.00 60 1014.9
20260507133503 12 14 4.8 9.7 0.00 0.00 0.00 61 1015.0
20260507133003 12 360 4.8 11.3 0.00 0.00 0.00 62 1014.9
20260507132503 11 352 6.4 11.3 0.00 0.00 0.00 65 1014.9
20260507132003 11 345 4.8 11.3 0.00 0.00 0.00 62 1014.8
20260507131503 11 353 4.8 11.3 0.00 0.00 0.00 67 1014.7
20260507131003 11 29 6.4 12.9 0.00 0.00 0.00 71 1014.7
20260507130503 11 28 8.0 16.1 0.00 0.00 0.00 66 1014.8
20260507130003 10 18 8.0 16.1 0.00 0.00 0.00 67 1014.8
20260507125524 10 10 6.4 14.5 0.00 0.00 0.00 68 1014.8
20260507125003 10 8 6.4 14.5 0.00 0.00 0.00 70 1014.9
20260507124503 10 360 6.4 12.9 0.00 0.00 0.00 70 1014.9
20260507124003 10 347 4.8 12.9 0.00 0.00 0.00 71 1015.0
20260507123503 10 351 4.8 12.9 0.00 0.00 0.00 73 1014.9
20260507123003 9 346 4.8 14.5 0.00 0.00 0.00 78 1014.9
20260507122503 8 333 6.4 14.5 0.00 0.00 0.00 77 1015.0
20260507122003 8 330 6.4 14.5 0.00 0.00 0.00 80 1015.0
20260507121503 8 330 6.4 14.5 0.00 0.00 0.00 80 1015.1
20260507121003 8 340 6.4 12.9 0.00 0.00 0.00 81 1015.1
20260507120503 8 341 4.8 11.3 0.00 0.03 0.00 83 1015.1
20260507120003 7 329 4.8 12.9 0.00 0.03 0.00 86 1015.0
20260507115503 7 326 4.8 12.9 0.00 0.03 0.00 87 1015.0
20260507115003 7 325 4.8 11.3 0.00 0.03 0.00 88 1015.0
20260507114503 6 323 4.8 9.7 0.00 0.03 0.00 90 1015.0
20260507114024 6 318 4.8 11.3 0.00 0.03 0.00 90 1014.9
20260507113503 6 318 3.2 11.3 0.00 0.03 0.00 94 1014.9
20260507113004 6 324 3.2 8.0 0.00 0.03 0.00 93 1014.9
20260507112503 5 329 3.2 6.4 0.00 0.03 0.00 94 1014.8
20260507112003 5 325 1.6 6.4 0.00 0.03 0.00 94 1014.7
20260507111504 5 319 1.6 4.8 0.00 0.03 0.00 94 1014.6
20260507111024 5 321 1.6 4.8 0.00 0.03 0.00 94 1014.5
20260507110524 5 321 3.2 6.4 0.00 0.03 0.00 94 1014.4
20260507110003 5 323 3.2 8.0 0.00 0.03 0.00 95 1014.3
20260507105524 5 324 3.2 8.0 0.00 0.03 0.00 95 1014.3
20260507105003 5 325 3.2 6.4 0.00 0.03 0.00 95 1014.3
20260507104503 5 322 1.6 4.8 0.00 0.03 0.00 95 1014.3
20260507104003 4 320 1.6 4.8 0.00 0.03 0.00 95 1014.2
20260507103503 4 323 1.6 3.2 0.00 0.03 0.00 95 1014.2
20260507103003 4 327 1.6 3.2 0.00 0.03 0.00 95 1014.1
20260507102503 4 338 0.0 1.6 0.00 0.03 0.00 94 1014.1
20260507102003 4 0 0.0 0.0 0.00 0.03 0.00 94 1014.0
20260507101524 5 0 0.0 0.0 0.00 0.03 0.00 94 1014.1
20260507101003 5 339 0.0 3.2 0.00 0.03 0.00 95 1014.2
20260507100503 5 339 1.6 4.8 0.00 0.03 0.00 94 1014.2
20260507100003 5 338 0.0 4.8 0.00 0.03 0.00 94 1014.1
20260507095524 5 0 0.0 0.0 0.00 0.03 0.00 94 1014.1
20260507095024 5 0 0.0 0.0 0.00 0.03 0.00 94 1014.1
20260507094503 5 0 0.0 0.0 0.00 0.03 0.00 95 1014.1
20260507094003 5 0 0.0 0.0 0.00 0.05 0.00 95 1014.1
20260507093503 5 0 0.0 0.0 0.00 0.05 0.00 94 1014.1
20260507093003 5 0 0.0 0.0 0.00 0.05 0.00 94 1014.1
20260507092524 5 0 0.0 0.0 0.00 0.05 0.00 94 1014.0
20260507092024 5 0 0.0 0.0 0.00 0.05 0.00 94 1013.9
20260507091503 5 0 0.0 0.0 0.00 0.08 0.00 94 1013.9
20260507091003 5 0 0.0 0.0 0.00 0.10 0.00 94 1013.9
20260507090503 5 0 0.0 0.0 0.00 0.10 0.00 93 1013.7
20260507090004 5 0 0.0 0.0 0.00 0.10 0.00 93 1013.8
20260507085503 5 327 0.0 4.8 0.00 0.10 0.00 93 1013.8
20260507085024 5 314 0.0 4.8 0.00 0.10 0.00 93 1013.8
20260507084503 6 301 1.6 3.2 0.00 0.10 0.00 94 1013.8
20260507084003 6 301 1.6 3.2 0.00 0.10 0.00 94 1013.8
20260507083524 6 301 0.0 3.2 0.00 0.10 0.00 93 1013.7
20260507083024 6 300 0.0 1.6 0.00 0.10 0.00 93 1013.7
20260507082503 6 304 0.0 1.6 0.00 0.10 0.00 93 1013.6
20260507082003 6 301 1.6 3.2 0.00 0.10 0.00 94 1013.7
20260507081503 6 300 1.6 3.2 0.00 0.13 0.00 94 1013.6
20260507081003 6 306 0.0 1.6 0.00 0.15 0.00 93 1013.5
20260507080503 6 0 0.0 0.0 0.00 0.20 0.00 93 1013.6
20260507080003 6 0 0.0 0.0 0.00 0.28 0.00 93 1013.6
20260507075503 6 0 0.0 0.0 0.00 0.30 0.00 93 1013.5
20260507075024 6 0 0.0 0.0 0.00 0.33 0.00 93 1013.6
20260507074503 7 0 0.0 0.0 0.00 0.38 0.00 93 1013.5
20260507074024 7 0 0.0 0.0 0.00 0.41 0.00 93 1013.6
20260507073524 7 0 0.0 0.0 0.00 0.41 0.00 93 1013.5
20260507073003 7 0 0.0 0.0 0.00 0.41 0.00 93 1013.6
20260507072503 7 0 0.0 0.0 0.00 0.43 0.00 93 1013.5
20260507072003 7 0 0.0 0.0 0.00 0.46 0.00 93 1013.5
20260507071504 7 334 0.0 1.6 0.00 0.51 0.00 93 1013.5
20260507071003 7 317 0.0 1.6 0.00 0.51 0.00 93 1013.4
20260507070524 7 319 0.0 1.6 0.00 0.56 0.00 92 1013.6
20260507070005 7 0 0.0 0.0 0.00 0.61 0.00 92 1013.4
20260507065503 7 299 0.0 3.2 0.00 0.64 0.00 92 1013.6
20260507065003 7 299 0.0 3.2 0.00 0.66 0.00 93 1013.5
20260507064503 7 300 0.0 1.6 0.00 0.69 0.00 92 1013.5
20260507064003 7 298 0.0 1.6 0.00 0.69 0.00 92 1013.4
20260507063503 7 296 0.0 1.6 0.00 0.69 0.00 92 1013.6
20260507063003 7 296 0.0 1.6 0.00 0.69 0.00 92 1013.7
20260507062503 7 297 0.0 1.6 0.00 0.71 0.00 92 1013.9
20260507062003 7 297 0.0 1.6 0.00 0.74 0.00 93 1014.0
20260507061503 7 298 0.0 1.6 0.00 0.74 0.00 92 1013.9
20260507061003 7 297 0.0 1.6 0.00 0.81 0.00 92 1013.9
20260507060503 7 314 0.0 3.2 0.00 0.84 0.00 92 1013.7
20260507060003 7 317 0.0 3.2 0.00 0.89 0.00 92 1013.9
20260507055503 7 325 0.0 3.2 0.00 0.94 0.00 92 1013.6
20260507055003 8 326 1.6 3.2 0.00 0.94 0.00 91 1013.5
20260507054503 8 326 0.0 3.2 0.00 0.99 0.00 91 1013.4
20260507054003 8 325 0.0 1.6 0.00 0.99 0.00 91 1013.4
20260507053503 8 325 0.0 1.6 0.00 0.99 0.00 91 1013.6
20260507053003 8 326 0.0 1.6 0.00 0.99 0.00 92 1013.6
20260507052503 8 324 0.0 1.6 0.00 0.99 0.00 92 1013.6
20260507052003 8 324 0.0 1.6 0.00 0.99 0.00 91 1013.7
20260507051503 8 321 0.0 3.2 0.00 0.99 0.00 91 1013.8
20260507051024 8 319 0.0 3.2 0.00 0.99 0.00 91 1013.8
20260507050503 8 316 0.0 1.6 0.00 0.99 0.00 91 1013.7
20260507050003 8 315 0.0 1.6 0.00 0.99 0.00 91 1013.7
20260507045503 8 316 0.0 1.6 0.00 0.99 0.00 91 1013.6
20260507045003 8 314 0.0 1.6 0.00 0.99 0.00 91 1013.8
20260507044503 8 315 0.0 1.6 0.00 0.99 0.00 90 1013.9
20260507044003 8 314 0.0 1.6 0.00 0.99 0.00 90 1013.8
20260507043503 8 313 1.6 3.2 0.00 0.99 0.00 90 1014.0
20260507043003 8 314 1.6 3.2 0.00 0.99 0.00 90 1014.0
20260507042503 8 314 0.0 1.6 0.00 1.02 0.00 90 1013.9
20260507042003 8 313 0.0 1.6 0.00 1.02 0.00 90 1014.0
20260507041503 8 313 0.0 1.6 0.00 1.02 0.00 90 1014.1
20260507041003 8 0 0.0 0.0 0.00 1.02 0.00 89 1014.1
20260507040503 8 319 0.0 1.6 0.00 1.02 0.00 89 1014.1
20260507040003 9 315 0.0 1.6 0.00 1.02 0.00 88 1014.1
20260507035503 9 314 0.0 1.6 0.00 1.09 1.02 88 1014.1
20260507035003 9 316 0.0 1.6 0.00 1.09 1.02 88 1014.1
20260507034503 9 0 0.0 0.0 0.00 1.09 1.02 87 1014.1
20260507034003 9 0 0.0 0.0 0.00 1.09 1.02 85 1014.1
20260507033503 10 0 0.0 0.0 0.00 1.09 1.02 86 1014.0
20260507033003 10 0 0.0 0.0 0.00 1.09 1.02 84 1014.0
20260507032503 10 312 0.0 3.2 0.00 1.09 1.02 84 1014.0
20260507032003 10 309 0.0 3.2 0.00 1.12 1.02 83 1013.9
20260507031503 10 307 0.0 3.2 0.00 1.12 1.02 83 1013.9
20260507031003 10 317 0.0 1.6 0.00 1.12 1.02 82 1013.8
20260507030503 10 316 0.0 1.6 0.00 1.12 1.02 81 1013.7
20260507030003 10 315 0.0 1.6 0.00 1.12 1.02 80 1013.7
20260507025524 11 315 0.0 1.6 0.00 1.12 1.02 81 1013.7
20260507025003 11 317 0.0 3.2 0.00 1.12 1.02 82 1013.6
20260507024524 11 325 1.6 3.2 0.00 1.12 1.02 78 1013.5
20260507024024 11 341 1.6 3.2 0.00 1.12 1.02 79 1013.6
20260507023503 11 351 1.6 3.2 0.00 1.12 1.02 78 1013.5
20260507023003 11 342 1.6 4.8 0.00 1.12 1.02 78 1013.4
20260507022503 11 340 1.6 4.8 0.00 1.12 1.02 78 1013.4
20260507022003 11 340 1.6 3.2 0.00 1.12 1.02 78 1013.3
20260507021503 11 333 1.6 4.8 0.00 1.12 1.02 78 1013.2
20260507021024 12 330 1.6 4.8 0.00 1.12 1.02 77 1013.2
20260507020524 12 331 1.6 4.8 0.00 1.12 1.02 77 1013.2
20260507020003 12 327 1.6 4.8 0.00 1.12 1.02 76 1013.1
20260507015524 12 334 3.2 4.8 0.00 1.12 1.02 75 1013.0
20260507015003 12 338 3.2 6.4 0.00 1.12 1.02 74 1012.9
20260507014524 12 336 3.2 6.4 0.00 1.12 1.02 74 1012.9
20260507014003 12 336 3.2 6.4 0.00 1.12 1.02 75 1013.0
20260507013503 12 331 3.2 6.4 0.00 1.12 1.02 74 1013.0
20260507013003 12 328 3.2 8.0 0.00 1.12 1.02 73 1013.1
20260507012524 12 329 3.2 8.0 0.00 1.12 1.02 72 1013.2
20260507012003 12 328 3.2 8.0 0.00 1.12 1.02 73 1013.1
20260507011503 12 323 3.2 4.8 0.00 1.12 1.02 73 1012.9
20260507011024 13 314 3.2 8.0 0.00 1.12 1.02 74 1013.0
20260507010503 13 307 3.2 8.0 0.00 1.12 1.02 73 1013.1
20260507010024 13 311 3.2 8.0 0.00 1.12 1.02 74 1013.0
20260507005503 13 315 3.2 8.0 0.00 1.14 1.02 72 1012.8
20260507005003 13 310 3.2 6.4 0.00 1.14 1.02 73 1012.7
20260507004524 13 304 3.2 6.4 0.00 1.17 1.02 73 1012.5
20260507004003 13 301 3.2 4.8 0.00 1.17 1.02 73 1012.6
20260507003503 13 297 1.6 4.8 0.00 1.19 1.02 74 1012.6
20260507003003 13 294 1.6 3.2 0.00 1.22 1.02 74 1012.5
20260507002503 13 290 1.6 4.8 0.00 1.22 1.02 73 1012.6
20260507002024 13 288 1.6 4.8 0.00 1.22 1.02 75 1012.5
20260507001503 13 287 1.6 3.2 0.00 1.22 1.02 73 1012.4
20260507001003 13 288 1.6 3.2 0.00 1.22 1.02 72 1012.3
20260507000503 13 290 1.6 3.2 0.00 1.22 1.02 73 1012.3
20260507000003 13 291 3.2 4.8 0.00 1.22 1.02 73 1012.3
20260506235503 13 289 3.2 4.8 0.00 1.22 1.02 73 1012.2
20260506235003 13 290 3.2 4.8 0.00 1.22 1.02 72 1012.4
20260506234503 13 290 3.2 4.8 0.00 1.22 1.02 71 1012.2
20260506234024 13 287 3.2 4.8 0.00 1.22 1.02 71 1012.1
20260506233503 13 283 3.2 4.8 0.00 1.22 1.02 72 1012.0
20260506233003 14 286 3.2 4.8 0.00 1.24 1.02 70 1012.2
20260506232503 14 289 3.2 4.8 0.00 1.24 1.02 69 1011.9
20260506232003 14 288 3.2 6.4 0.00 1.24 1.02 70 1011.9
20260506231524 14 284 3.2 6.4 0.00 1.24 1.02 68 1012.2
20260506231003 14 286 3.2 4.8 0.00 1.24 1.02 69 1011.9
20260506230503 14 299 3.2 6.4 0.00 1.24 1.02 70 1011.6
20260506230003 14 312 3.2 8.0 0.00 1.24 1.02 69 1011.4
20260506225503 14 316 4.8 9.7 0.00 1.24 1.02 66 1011.2
20260506225024 14 313 4.8 9.7 0.00 1.24 1.02 68 1011.2
20260506224524 15 310 4.8 8.0 0.00 1.24 1.02 68 1011.3
20260506224003 15 318 4.8 11.3 0.00 1.24 1.02 67 1011.7
20260506223503 15 316 4.8 11.3 0.00 1.24 1.02 65 1011.2
20260506223003 15 315 4.8 8.0 0.00 1.24 1.02 67 1011.5
20260506222503 15 322 3.2 8.0 0.00 1.24 1.02 69 1011.5
20260506222003 15 325 3.2 8.0 0.00 1.24 1.02 66 1011.3
20260506221504 15 324 4.8 11.3 0.00 1.24 1.02 68 1011.0
20260506221003 15 332 4.8 11.3 0.00 1.24 1.02 66 1011.0
20260506220503 15 332 4.8 9.7 0.00 1.24 1.02 68 1011.1
20260506220003 15 325 3.2 8.0 0.00 1.24 1.02 67 1011.4
20260506215503 15 325 3.2 6.4 0.00 1.24 1.02 72 1011.3
20260506215003 15 308 3.2 6.4 0.00 1.24 1.02 69 1011.4
20260506214503 15 296 4.8 6.4 0.00 1.24 1.02 70 1011.4
20260506214024 15 298 4.8 8.0 0.00 1.24 1.02 70 1011.9
20260506213503 16 297 4.8 8.0 0.00 1.24 1.02 69 1011.8
20260506213003 16 299 4.8 8.0 0.00 1.24 1.02 69 1011.6
20260506212503 16 302 4.8 11.3 0.00 1.24 1.02 70 1011.4
20260506212003 16 294 4.8 11.3 0.00 1.24 1.02 68 1011.3
20260506211503 16 292 4.8 6.4 0.00 1.24 1.02 71 1011.4
20260506211003 16 292 4.8 6.4 0.00 1.24 1.02 70 1011.4
20260506210503 16 298 3.2 6.4 0.00 1.24 1.02 70 1011.3
20260506210003 16 295 3.2 6.4 0.00 1.24 1.02 70 1011.3
20260506205503 16 286 3.2 6.4 0.00 1.24 1.02 71 1011.3
20260506205003 16 286 3.2 6.4 0.00 1.24 1.02 67 1011.4
20260506204503 16 292 3.2 6.4 0.00 1.24 1.02 70 1011.3
20260506204003 16 282 3.2 6.4 0.00 1.24 1.02 70 1011.1
20260506203503 16 299 3.2 6.4 0.00 1.24 1.02 68 1011.0
20260506203003 16 13 3.2 6.4 0.00 1.24 1.02 68 1010.9
20260506202503 16 359 3.2 6.4 0.00 1.24 1.02 69 1011.2
20260506202003 16 289 3.2 6.4 0.00 1.24 1.02 67 1011.3
20260506201503 16 290 3.2 6.4 0.00 1.24 1.02 67 1011.4
20260506201003 16 308 1.6 6.4 0.00 1.24 1.02 67 1011.5
20260506200503 16 292 1.6 4.8 0.00 1.24 1.02 66 1011.6
20260506200003 16 296 1.6 6.4 0.00 1.24 1.02 68 1011.6
20260506195503 16 301 3.2 8.0 0.00 1.24 1.02 69 1011.4
20260506195003 16 287 3.2 8.0 0.00 1.24 1.02 67 1011.6
20260506194503 16 303 3.2 4.8 0.00 1.24 1.02 68 1011.8
20260506194003 16 350 3.2 4.8 0.00 1.24 1.02 65 1011.5